Hourly Data Report for October 02, 2017

All times are specified in Local Standard Time (LST). Add 1 hour to adjust for Daylight Saving Time where and when it is observed.

SQUAMISH AIRPORT
BRITISH COLUMBIA

49°46'59.550" N
123°09'40.300" W
53.70 m
10476F0
71207
WSK

Download Data

Hourly Data (October 2017)
Hourly Data Report for October 2, 2017
Temp Definition
°C
Dew Point Temp Definition
°C
Rel Hum Definition
%
Wind Dir Definition
10's deg

Wind Spd Definition
km/h
Visibility Definition
km
Stn Press Definition
kPa
Hmdx Definition


Wind Chill Definition


Weather Definition


TIME
00:00 6.5 6.1 97 2 1   101.43     LegendNANA
01:00 6.5 6.1 97 0 1   101.44     LegendNANA
02:00 5.9 5.4 97 12 2   101.45     LegendNANA
03:00 5.9 5.4 97 6 3   101.47     LegendNANA
04:00 5.6 5.2 97 11 1   101.50     LegendNANA
05:00 5.1 4.7 98 7 2   101.52     LegendNANA
06:00 4.8 4.5 98 10 2   101.54     LegendNANA
07:00 4.5 4.1 98 8 1   101.56     LegendNANA
08:00 6.5 5.9 97 4 2   101.55     LegendNANA
09:00 11.8 5.0 63 32 11   101.54     LegendNANA
10:00 16.4 0.9 35 31 15   101.54     LegendNANA
11:00 17.9 -1.3 27 33 22   101.54     LegendNANA
12:00 18.7 -1.4 26 33 17   101.55     LegendNANA
13:00 19.8 -0.8 25 34 14   101.54     LegendNANA
14:00 20.2 -0.9 24 33 14   101.54     LegendNANA
15:00 20.2 -1.5 23 34 13   101.52     LegendNANA
16:00 18.3 -1.7 26 32 13   101.54     LegendNANA
17:00 17.5 -2.1 26 31 13   101.58     LegendNANA
18:00 16.3 -1.6 29 31 10   101.63     LegendNANA
19:00 15.6 -1.1 32 34 8   101.72     LegendNANA
20:00 15.3 -1.5 31 33 11   101.79     LegendNANA
21:00 14.9 -1.8 32 36 7   101.85     LegendNANA
22:00 11.3 1.0 49 1 5   101.93     LegendNANA
23:00 8.6 2.2 64 36 3   101.95     LegendNANA

Notes on Data Quality.

Legend

  • E = Estimated
  • M = Missing
  • NA = Not Available
  • ‡ = Partner data that is not subject to review by the National Climate Archives
Date modified: